LOG34JD EGNS-EGLC

Flight info

Callsign LOG34JD
Flight time 0h 58m
Altitude 19000
Route TIMIS Q39 NOMSU Q4 WAL L10 HON
Aircraft AT76/M-SDFGIRY/S

Departure

Time 2026-04-08 14:37
Airport Isle of Man Airport (EGNS)

Arrival

Time 2026-04-08 15:35
Airport London City Airport (EGLC)
Time Latitude Longitude Altitude Speed Heading
2026-04-08 14:08 54.08629 -4.63266 42 ft 0 kts 223°
2026-04-08 14:30 54.08634 -4.63258 42 ft 4 kts 224°
2026-04-08 14:30 54.08653 -4.63225 42 ft 4 kts 226°
2026-04-08 14:30 54.08671 -4.63200 42 ft 4 kts 176°
2026-04-08 14:31 54.08680 -4.63204 42 ft 1 kts 150°
2026-04-08 14:31 54.08681 -4.63205 42 ft 0 kts 150°
2026-04-08 14:32 54.08680 -4.63205 42 ft 1 kts 150°
2026-04-08 14:32 54.08644 -4.63160 42 ft 11 kts 141°
2026-04-08 14:32 54.08583 -4.63058 45 ft 11 kts 136°
2026-04-08 14:33 54.08515 -4.63014 45 ft 11 kts 169°
2026-04-08 14:33 54.08466 -4.62999 45 ft 11 kts 169°
2026-04-08 14:33 54.08421 -4.62927 42 ft 10 kts 80°
2026-04-08 14:33 54.08439 -4.62787 43 ft 14 kts 78°
2026-04-08 14:34 54.08470 -4.62535 44 ft 17 kts 76°
2026-04-08 14:34 54.08497 -4.62338 44 ft 18 kts 79°
2026-04-08 14:34 54.08522 -4.62122 44 ft 19 kts 78°
2026-04-08 14:34 54.08553 -4.61881 40 ft 22 kts 78°
2026-04-08 14:35 54.08574 -4.61713 38 ft 22 kts 78°
2026-04-08 14:35 54.08606 -4.61460 38 ft 22 kts 77°
2026-04-08 14:35 54.08637 -4.61213 38 ft 21 kts 78°
2026-04-08 14:35 54.08667 -4.60968 38 ft 21 kts 79°
2026-04-08 14:36 54.08608 -4.60782 38 ft 18 kts 159°
2026-04-08 14:36 54.08523 -4.60824 38 ft 12 kts 254°
2026-04-08 14:36 54.08483 -4.61143 38 ft 64 kts 258°
2026-04-08 14:36 54.08342 -4.62248 202 ft 110 kts 257°
2026-04-08 14:37 54.08185 -4.63539 881 ft 118 kts 257°
2026-04-08 14:37 54.08034 -4.64740 1535 ft 120 kts 257°
2026-04-08 14:37 54.07611 -4.65887 2170 ft 124 kts 214°
2026-04-08 14:37 54.06662 -4.65952 2489 ft 161 kts 164°
2026-04-08 14:38 54.05699 -4.64968 3000 ft 162 kts 154°
2026-04-08 14:38 54.04672 -4.64145 3461 ft 166 kts 164°
2026-04-08 14:38 54.03532 -4.63551 3843 ft 174 kts 171°
2026-04-08 14:38 54.02354 -4.63068 4340 ft 176 kts 173°
2026-04-08 14:39 54.01158 -4.62598 4863 ft 178 kts 173°
2026-04-08 14:39 53.99965 -4.62123 5337 ft 179 kts 173°
2026-04-08 14:39 53.98750 -4.61619 5832 ft 180 kts 172°
2026-04-08 14:39 53.97533 -4.61085 6324 ft 181 kts 171°
2026-04-08 14:40 53.96306 -4.60533 6792 ft 183 kts 171°
2026-04-08 14:40 53.95088 -4.59913 7237 ft 186 kts 161°
2026-04-08 14:40 53.94146 -4.58322 7634 ft 197 kts 130°
2026-04-08 14:40 53.93388 -4.56355 8063 ft 200 kts 128°
2026-04-08 14:41 53.92648 -4.54347 8480 ft 201 kts 128°
2026-04-08 14:41 53.91907 -4.52371 8916 ft 202 kts 129°
2026-04-08 14:41 53.91147 -4.50364 9346 ft 202 kts 130°
2026-04-08 14:41 53.90364 -4.48378 9763 ft 203 kts 131°
2026-04-08 14:42 53.89566 -4.46395 10181 ft 204 kts 131°
2026-04-08 14:42 53.88759 -4.44410 10544 ft 206 kts 131°
2026-04-08 14:42 53.87944 -4.42404 10903 ft 207 kts 132°
2026-04-08 14:42 53.87123 -4.40385 11258 ft 209 kts 132°
2026-04-08 14:43 53.86290 -4.38349 11604 ft 211 kts 132°
2026-04-08 14:43 53.85463 -4.36322 11945 ft 213 kts 132°
2026-04-08 14:43 53.84618 -4.34256 12294 ft 214 kts 133°
2026-04-08 14:43 53.83766 -4.32172 12634 ft 216 kts 133°
2026-04-08 14:44 53.82905 -4.30072 12981 ft 218 kts 133°
2026-04-08 14:44 53.82039 -4.27956 13311 ft 220 kts 133°
2026-04-08 14:44 53.81163 -4.25820 13641 ft 222 kts 133°
2026-04-08 14:44 53.80283 -4.23674 13963 ft 223 kts 133°
2026-04-08 14:45 53.79391 -4.21509 14254 ft 225 kts 133°
2026-04-08 14:45 53.78497 -4.19336 14548 ft 226 kts 133°
2026-04-08 14:45 53.77610 -4.17179 14824 ft 227 kts 133°
2026-04-08 14:45 53.76706 -4.14979 15101 ft 228 kts 133°
2026-04-08 14:46 53.75799 -4.12771 15365 ft 230 kts 133°
2026-04-08 14:46 53.74886 -4.10549 15622 ft 231 kts 133°
2026-04-08 14:46 53.73967 -4.08319 15877 ft 232 kts 133°
2026-04-08 14:46 53.73044 -4.06082 16125 ft 233 kts 133°
2026-04-08 14:47 53.72115 -4.03836 16394 ft 234 kts 133°
2026-04-08 14:47 53.71181 -4.01579 16668 ft 235 kts 133°
2026-04-08 14:47 53.70257 -3.99342 16924 ft 236 kts 132°
2026-04-08 14:47 53.69317 -3.97070 17179 ft 237 kts 132°
2026-04-08 14:48 53.68370 -3.94784 17416 ft 238 kts 132°
2026-04-08 14:48 53.67418 -3.92497 17654 ft 239 kts 133°
2026-04-08 14:48 53.66460 -3.90197 17885 ft 240 kts 132°
2026-04-08 14:48 53.65503 -3.87892 18108 ft 241 kts 132°
2026-04-08 14:49 53.64542 -3.85578 18316 ft 241 kts 132°
2026-04-08 14:49 53.63576 -3.83260 18556 ft 242 kts 132°
2026-04-08 14:49 53.62606 -3.80934 18768 ft 243 kts 132°
2026-04-08 14:49 53.61634 -3.78607 18970 ft 243 kts 132°
2026-04-08 14:50 53.60665 -3.76293 19099 ft 247 kts 132°
2026-04-08 14:50 53.59661 -3.73902 19161 ft 253 kts 132°
2026-04-08 14:50 53.58633 -3.71451 19191 ft 259 kts 131°
2026-04-08 14:50 53.57583 -3.68944 19214 ft 265 kts 131°
2026-04-08 14:51 53.56516 -3.66391 19225 ft 269 kts 131°
2026-04-08 14:51 53.55433 -3.63800 19228 ft 272 kts 131°
2026-04-08 14:51 53.54337 -3.61185 19228 ft 275 kts 131°
2026-04-08 14:51 53.53227 -3.58546 19229 ft 277 kts 131°
2026-04-08 14:52 53.52111 -3.55893 19228 ft 279 kts 131°
2026-04-08 14:52 53.50989 -3.53231 19230 ft 280 kts 131°
2026-04-08 14:52 53.49875 -3.50596 19231 ft 281 kts 131°
2026-04-08 14:52 53.48765 -3.47970 19231 ft 281 kts 131°
2026-04-08 14:53 53.47631 -3.45291 19231 ft 282 kts 131°
2026-04-08 14:53 53.46517 -3.42580 19228 ft 284 kts 126°
2026-04-08 14:53 53.45669 -3.39562 19231 ft 287 kts 117°
2026-04-08 14:53 53.44949 -3.36431 19231 ft 288 kts 116°
2026-04-08 14:54 53.44238 -3.33288 19233 ft 288 kts 116°
2026-04-08 14:54 53.43487 -3.30178 19230 ft 288 kts 118°
2026-04-08 14:54 53.42695 -3.27094 19235 ft 288 kts 118°
2026-04-08 14:54 53.41903 -3.24003 19231 ft 288 kts 118°
2026-04-08 14:55 53.41126 -3.20959 19231 ft 288 kts 118°
2026-04-08 14:55 53.40336 -3.17866 19232 ft 288 kts 118°
2026-04-08 14:55 53.39536 -3.14795 19233 ft 284 kts 121°
2026-04-08 14:55 53.38393 -3.12191 19232 ft 275 kts 140°
2026-04-08 14:56 53.37006 -3.10006 19236 ft 273 kts 146°
2026-04-08 14:56 53.35541 -3.07980 19232 ft 273 kts 147°
2026-04-08 14:56 53.34066 -3.05962 19237 ft 274 kts 147°
2026-04-08 14:56 53.32609 -3.03901 19236 ft 275 kts 146°
2026-04-08 14:57 53.31165 -3.01791 19237 ft 275 kts 145°
2026-04-08 14:57 53.29740 -2.99713 19237 ft 276 kts 145°
2026-04-08 14:57 53.28279 -2.97576 19237 ft 275 kts 145°
2026-04-08 14:57 53.26855 -2.95502 19237 ft 275 kts 146°
2026-04-08 14:58 53.25408 -2.93399 19237 ft 276 kts 145°
2026-04-08 14:58 53.23961 -2.91296 19239 ft 276 kts 145°
2026-04-08 14:58 53.22512 -2.89187 19237 ft 276 kts 145°
2026-04-08 14:58 53.21063 -2.87084 19235 ft 276 kts 145°
2026-04-08 14:59 53.19614 -2.84984 19239 ft 276 kts 145°
2026-04-08 14:59 53.18164 -2.82882 19235 ft 276 kts 145°
2026-04-08 14:59 53.16710 -2.80777 19237 ft 276 kts 145°
2026-04-08 14:59 53.15258 -2.78680 19232 ft 276 kts 145°
2026-04-08 15:00 53.13828 -2.76609 19231 ft 276 kts 145°
2026-04-08 15:00 53.12378 -2.74517 19232 ft 276 kts 145°
2026-04-08 15:00 53.10926 -2.72420 19230 ft 276 kts 145°
2026-04-08 15:00 53.09476 -2.70331 19228 ft 276 kts 145°
2026-04-08 15:01 53.08019 -2.68238 19224 ft 277 kts 145°
2026-04-08 15:01 53.06566 -2.66142 19225 ft 277 kts 145°
2026-04-08 15:01 53.05109 -2.64053 19221 ft 277 kts 145°
2026-04-08 15:01 53.03653 -2.61961 19208 ft 277 kts 145°
2026-04-08 15:02 53.02213 -2.59897 19209 ft 277 kts 145°
2026-04-08 15:02 53.00755 -2.57809 19210 ft 277 kts 145°
2026-04-08 15:02 52.99297 -2.55720 19206 ft 277 kts 145°
2026-04-08 15:02 52.97837 -2.53631 19206 ft 277 kts 145°
2026-04-08 15:03 52.96380 -2.51549 19211 ft 277 kts 145°
2026-04-08 15:03 52.94920 -2.49465 19213 ft 277 kts 145°
2026-04-08 15:03 52.93462 -2.47385 19213 ft 277 kts 145°
2026-04-08 15:03 52.92005 -2.45308 19207 ft 277 kts 145°
2026-04-08 15:04 52.90542 -2.43227 19210 ft 277 kts 145°
2026-04-08 15:04 52.89080 -2.41147 19215 ft 277 kts 145°
2026-04-08 15:04 52.87636 -2.39092 19206 ft 277 kts 145°
2026-04-08 15:04 52.86176 -2.37017 19204 ft 277 kts 145°
2026-04-08 15:05 52.84711 -2.34943 19206 ft 277 kts 145°
2026-04-08 15:05 52.83248 -2.32869 19207 ft 277 kts 145°
2026-04-08 15:05 52.81785 -2.30796 19209 ft 277 kts 145°
2026-04-08 15:05 52.80326 -2.28737 19209 ft 277 kts 145°
2026-04-08 15:06 52.78916 -2.26743 19210 ft 277 kts 145°
2026-04-08 15:06 52.77451 -2.24673 19210 ft 277 kts 145°
2026-04-08 15:06 52.75988 -2.22609 19213 ft 276 kts 145°
2026-04-08 15:06 52.74546 -2.20575 19212 ft 276 kts 145°
2026-04-08 15:07 52.73084 -2.18519 19209 ft 276 kts 145°
2026-04-08 15:07 52.71623 -2.16462 19211 ft 276 kts 145°
2026-04-08 15:07 52.70163 -2.14411 19210 ft 276 kts 145°
2026-04-08 15:07 52.68704 -2.12361 19213 ft 276 kts 145°
2026-04-08 15:08 52.67243 -2.10312 19210 ft 276 kts 145°
2026-04-08 15:08 52.65781 -2.08261 19209 ft 276 kts 145°
2026-04-08 15:08 52.64360 -2.06273 19207 ft 276 kts 145°
2026-04-08 15:08 52.62915 -2.04252 19211 ft 275 kts 145°
2026-04-08 15:09 52.61456 -2.02210 19205 ft 275 kts 145°
2026-04-08 15:09 52.59997 -2.00175 19213 ft 275 kts 145°
2026-04-08 15:09 52.58539 -1.98138 19208 ft 275 kts 145°
2026-04-08 15:09 52.57079 -1.96103 19207 ft 275 kts 145°
2026-04-08 15:10 52.55619 -1.94064 19215 ft 275 kts 145°
2026-04-08 15:10 52.54155 -1.92029 19207 ft 275 kts 145°
2026-04-08 15:10 52.52693 -1.90000 19208 ft 275 kts 145°
2026-04-08 15:10 52.51234 -1.87974 19209 ft 275 kts 145°
2026-04-08 15:11 52.49793 -1.85966 19208 ft 276 kts 145°
2026-04-08 15:11 52.48326 -1.83932 19211 ft 277 kts 145°
2026-04-08 15:11 52.46853 -1.81897 19209 ft 277 kts 145°
2026-04-08 15:11 52.45381 -1.79853 19211 ft 278 kts 145°
2026-04-08 15:12 52.43913 -1.77792 19207 ft 278 kts 144°
2026-04-08 15:12 52.42441 -1.75730 19213 ft 278 kts 144°
2026-04-08 15:12 52.40964 -1.73676 19212 ft 279 kts 145°
2026-04-08 15:12 52.39479 -1.71633 19208 ft 279 kts 145°
2026-04-08 15:13 52.37987 -1.69597 19207 ft 279 kts 145°
2026-04-08 15:13 52.36520 -1.67575 19212 ft 280 kts 144°
2026-04-08 15:13 52.35348 -1.65020 19206 ft 287 kts 120°
2026-04-08 15:13 52.34670 -1.61933 19213 ft 290 kts 109°
2026-04-08 15:14 52.34160 -1.58738 19210 ft 291 kts 107°
2026-04-08 15:14 52.33669 -1.55535 19210 ft 291 kts 108°
2026-04-08 15:14 52.33133 -1.52345 19210 ft 291 kts 110°
2026-04-08 15:14 52.32545 -1.49176 19210 ft 291 kts 110°
2026-04-08 15:15 52.31962 -1.46053 19210 ft 292 kts 110°
2026-04-08 15:15 52.31377 -1.42879 19211 ft 292 kts 110°
2026-04-08 15:15 52.30790 -1.39698 19211 ft 292 kts 110°
2026-04-08 15:15 52.30205 -1.36521 19212 ft 292 kts 110°
2026-04-08 15:16 52.29527 -1.33425 19207 ft 285 kts 123°
2026-04-08 15:16 52.28403 -1.30794 19180 ft 282 kts 134°
2026-04-08 15:16 52.27085 -1.28351 18928 ft 291 kts 137°
2026-04-08 15:16 52.25727 -1.25918 18703 ft 297 kts 136°
2026-04-08 15:17 52.24354 -1.23359 18465 ft 302 kts 135°
2026-04-08 15:17 52.23003 -1.20711 18195 ft 305 kts 134°
2026-04-08 15:17 52.21638 -1.18039 17920 ft 307 kts 134°
2026-04-08 15:17 52.20262 -1.15363 17665 ft 309 kts 134°
2026-04-08 15:18 52.17493 -1.09993 17131 ft 312 kts 134°
2026-04-08 15:18 52.16095 -1.07286 16870 ft 312 kts 134°
2026-04-08 15:18 52.14695 -1.04577 16625 ft 313 kts 134°
2026-04-08 15:19 52.13480 -1.01647 16358 ft 318 kts 115°
2026-04-08 15:19 52.12955 -0.98190 16099 ft 322 kts 100°
2026-04-08 15:19 52.12874 -0.94540 15860 ft 323 kts 90°
2026-04-08 15:19 52.12976 -0.90896 15637 ft 322 kts 88°
2026-04-08 15:20 52.12952 -0.87292 15378 ft 316 kts 103°
2026-04-08 15:20 52.12103 -0.84063 15120 ft 309 kts 126°
2026-04-08 15:20 52.10892 -0.81178 14875 ft 309 kts 128°
2026-04-08 15:20 52.09640 -0.78345 14639 ft 309 kts 129°
2026-04-08 15:21 52.08360 -0.75526 14401 ft 310 kts 130°
2026-04-08 15:21 52.07067 -0.72719 14171 ft 311 kts 130°
2026-04-08 15:21 52.05779 -0.69955 13921 ft 310 kts 130°
2026-04-08 15:21 52.04489 -0.67185 13667 ft 303 kts 130°
2026-04-08 15:22 52.03229 -0.64507 13395 ft 295 kts 130°
2026-04-08 15:22 52.01995 -0.61885 13136 ft 289 kts 130°
2026-04-08 15:22 52.00784 -0.59308 12869 ft 285 kts 130°
2026-04-08 15:22 51.99588 -0.56762 12613 ft 282 kts 130°
2026-04-08 15:23 51.98409 -0.54243 12340 ft 281 kts 130°
2026-04-08 15:23 51.97213 -0.51694 12098 ft 287 kts 130°
2026-04-08 15:23 51.95991 -0.49095 11850 ft 293 kts 130°
2026-04-08 15:23 51.94763 -0.46503 11602 ft 293 kts 130°
2026-04-08 15:24 51.93523 -0.43901 11301 ft 291 kts 131°
2026-04-08 15:24 51.92298 -0.41327 11012 ft 289 kts 131°
2026-04-08 15:24 51.91071 -0.38749 10720 ft 288 kts 131°
2026-04-08 15:24 51.89850 -0.36188 10435 ft 287 kts 130°
2026-04-08 15:25 51.88630 -0.33634 10142 ft 286 kts 131°
2026-04-08 15:25 51.87383 -0.31134 9847 ft 285 kts 134°
2026-04-08 15:25 51.86076 -0.28733 9522 ft 284 kts 135°
2026-04-08 15:25 51.84748 -0.26363 9220 ft 283 kts 135°
2026-04-08 15:26 51.83415 -0.24019 8918 ft 283 kts 135°
2026-04-08 15:26 51.82087 -0.21744 8611 ft 281 kts 137°
2026-04-08 15:26 51.80677 -0.19553 8304 ft 281 kts 140°
2026-04-08 15:26 51.79257 -0.17430 8011 ft 280 kts 140°
2026-04-08 15:27 51.77826 -0.15316 7719 ft 279 kts 141°
2026-04-08 15:27 51.76434 -0.13282 7435 ft 278 kts 141°
2026-04-08 15:27 51.75026 -0.11238 7146 ft 277 kts 141°
2026-04-08 15:27 51.73590 -0.09159 6860 ft 277 kts 141°
2026-04-08 15:28 51.72173 -0.07100 6567 ft 271 kts 141°
2026-04-08 15:28 51.70790 -0.05097 6251 ft 265 kts 141°
2026-04-08 15:28 51.69467 -0.03189 5954 ft 261 kts 141°
2026-04-08 15:28 51.68124 -0.01247 5649 ft 257 kts 141°
2026-04-08 15:29 51.66800 0.00672 5352 ft 255 kts 141°
2026-04-08 15:29 51.65488 0.02586 5062 ft 254 kts 140°
2026-04-08 15:29 51.64181 0.04483 4746 ft 253 kts 141°
2026-04-08 15:29 51.62894 0.06333 4452 ft 250 kts 141°
2026-04-08 15:30 51.61600 0.08176 4185 ft 248 kts 141°
2026-04-08 15:30 51.60306 0.10005 3886 ft 247 kts 141°
2026-04-08 15:30 51.59029 0.11821 3604 ft 234 kts 141°
2026-04-08 15:30 51.57897 0.13431 3270 ft 207 kts 141°
2026-04-08 15:31 51.56868 0.14895 2879 ft 194 kts 140°
2026-04-08 15:31 51.55888 0.16302 2482 ft 185 kts 141°
2026-04-08 15:31 51.54943 0.17646 2205 ft 175 kts 141°
2026-04-08 15:31 51.54060 0.18855 2119 ft 161 kts 149°
2026-04-08 15:32 51.53006 0.19247 2065 ft 153 kts 179°
2026-04-08 15:32 51.51988 0.19314 2045 ft 140 kts 178°
2026-04-08 15:32 51.51049 0.19372 2073 ft 133 kts 179°
2026-04-08 15:32 51.50215 0.18937 2006 ft 130 kts 228°
2026-04-08 15:33 51.50062 0.17637 1992 ft 124 kts 276°
2026-04-08 15:33 51.50186 0.16317 1993 ft 118 kts 273°
2026-04-08 15:33 51.50237 0.14967 1898 ft 130 kts 267°
2026-04-08 15:33 51.50258 0.13440 1545 ft 145 kts 270°
2026-04-08 15:34 51.50323 0.11924 1200 ft 125 kts 271°
2026-04-08 15:34 51.50377 0.10600 918 ft 114 kts 270°
2026-04-08 15:34 51.50424 0.09342 661 ft 117 kts 267°
2026-04-08 15:34 51.50447 0.08020 362 ft 117 kts 268°
2026-04-08 15:35 51.50482 0.06754 93 ft 111 kts 269°
2026-04-08 15:35 51.50516 0.05683 22 ft 51 kts 272°
2026-04-08 15:35 51.50509 0.05346 26 ft 14 kts 229°
2026-04-08 15:35 51.50455 0.05258 22 ft 10 kts 233°
2026-04-08 15:36 51.50450 0.05162 22 ft 10 kts 274°
2026-04-08 15:36 51.50460 0.05038 22 ft 11 kts 282°
2026-04-08 15:36 51.50464 0.04919 22 ft 10 kts 270°
2026-04-08 15:36 51.50452 0.04841 23 ft 4 kts 204°
2026-04-08 15:37 51.50433 0.04828 22 ft 2 kts 237°
2026-04-08 15:37 51.50438 0.04819 22 ft 0 kts 311°